Regional Weather Roundup
Issued by NWS San Angelo, TX

Current Version | Previous Version | Text Only | Print | Product List | Glossary On
Versions: 1 2 3 4 5 6 7 8 9 10 11 12 13 14 15 16 17 18 19 20 21 22 23 24 25 26 27 28 29 30 31 32 33 34 35 36 37 38 39 40 41 42 43 44 45 46 47 48 49 50
000
ASUS44 KSJT 050402
RWRSJT
WEST CENTRAL TEXAS REGIONAL WEATHER ROUNDUP
NATIONAL WEATHER SERVICE SAN ANGELO TX
1100 PM CDT FRI SEP 04 2015

NOTE: "FAIR" INDICATES FEW OR NO CLOUDS BELOW 12,000 FEET WITH NO
SIGNIFICANT WEATHER AND/OR OBSTRUCTIONS TO VISIBILITY.

TXZ049-054-064>066-071>073-076>078-098-099-113-114-127-128-139-140-
154-155-168>170-050500
...LOCATIONS ACROSS WEST CENTRAL TEXAS...

CITY           SKY/WX    TMP DP  RH WIND       PRES   REMARKS
SAN ANGELO     CLEAR     84  60  44 SE10      29.93R
ABILENE        CLEAR     83  64  52 SE9       29.96R
DYESS AFB      CLEAR     84  66  53 E12       29.94R
JUNCTION       CLEAR     83  65  54 SE12      29.96R
SWEETWATER     NOT AVBL
BROWNWOOD      NOT AVBL
COLEMAN        CLEAR     83  65  54 SE6       29.96R
SONORA         NOT AVBL
OZONA          FAIR      82  57  42 S8        29.99R
BRADY          NOT AVBL
$$

TEXAS PANHANDLE/OKLAHOMA PANHANDLE

CITY           SKY/WX    TMP DP  RH WIND       PRES   REMARKS
AMARILLO       PTCLDY    75  56  51 SE12      30.02R
BORGER         MOCLDY    83  56  39 SE13G20   29.98R
CANADIAN       PTCLDY    82  62  51 S15G22    29.95S
DALHART        CLOUDY    81  53  37 S9        30.03R
DUMAS          MOCLDY    78  55  45 S10       30.01S
GUYMON         NOT AVBL
HEREFORD       NOT AVBL
PAMPA          NOT AVBL
PERRYTON       NOT AVBL
$$

SOUTHERN PANHANDLE/SOUTH PLAINS/ROLLING PLAINS

CITY           SKY/WX    TMP DP  RH WIND       PRES   REMARKS
LUBBOCK        MOCLDY    75  55  49 SE7       30.01R
SNYDER         NOT AVBL
CHILDRESS      PTCLDY    82  60  47 SE10      29.95R
SEMINOLE       NOT AVBL
$$

PERMIAN BASIN

CITY           SKY/WX    TMP DP  RH WIND       PRES   REMARKS
MIDLAND        CLEAR     81  54  39 SE6       29.98R
ODESSA         CLEAR     83  53  35 SE8       29.99R
WINK           CLEAR     83  54  36 SE8       29.95R
$$

FAR WEST/SOUTHWEST MOUNTAINS/TRANS PECOS

CITY           SKY/WX    TMP DP  RH WIND       PRES   REMARKS
ALPINE         CLEAR     78  55  44 SE13      30.12R
DRYDEN           N/A     88  62  41 SE9       29.93R
EL PASO        CLOUDY    84  52  33 NW13      30.00R
FORT STOCKTON  CLEAR     83  55  38 SE9       29.98R
GUADALUPE PASS CLOUDY    77  48  35 NE21      30.13R
MARFA          CLEAR     72  48  43 N5        30.11R
PECOS          NOT AVBL
$$

DALLAS/FORT WORTH METROPLEX

CITY           SKY/WX    TMP DP  RH WIND       PRES   REMARKS
DFW AIRPORT    PTCLDY    87  69  54 SE12      29.93R
FTW MEACHAM    CLEAR     88  68  51 SE9       29.93R
DAL-EXECUTIVE  CLEAR     85  69  58 SE8       29.94R
GRAND PRAIRIE  CLEAR     86  70  58 E8        29.94S
ADDISON        CLEAR     87  72  61 SE10G16   29.95S
MESQUITE       CLEAR     83  69  61 SE7       29.94S
LANCASTER      CLEAR     84  67  55 SE6       29.95S
$$

NORTH CENTRAL TEXAS

CITY           SKY/WX    TMP DP  RH WIND       PRES   REMARKS
SHRMAN/DENISON PTCLDY    84  71  64 SE9       29.96S
GAINESVILLE    NOT AVBL
BRIDGEPORT     CLEAR     80  69  69 SE5       29.95S
DENTON         CLEAR     85  69  58 SE9       29.93R
WAXAHACHIE     CLEAR     84  71  64 SE6       29.96R
GRANBURY       NOT AVBL
$$

WESTERN NORTH TEXAS

CITY           SKY/WX    TMP DP  RH WIND       PRES   REMARKS
WICHITA FALLS  CLEAR     82  66  58 SE10      29.93R
VERNON         CLEAR     86  59  39 SE12      29.94R
BRECKENRIDGE   NOT AVBL
COMANCHE       CLEAR     83  70  65 SE13      29.96R
$$

CENTRAL AND SOUTH CENTRAL TEXAS

CITY           SKY/WX    TMP DP  RH WIND       PRES   REMARKS
AUSTIN/BERGSTM PTCLDY    80  72  76 S7        29.95R
WACO           CLEAR     84  70  62 S13       29.94R
HILLSBORO      NOT AVBL
TEMPLE         CLOUDY    81  70  69 SE10      29.95S
KILLEEN-GRAY   CLEAR     81  71  71 SE10      29.95R
FORT HOOD      CLEAR     81  71  72 SE8       29.94R
GEORGETOWN     PTCLDY    82  72  69 S9        29.96S
LAGO VISTA     FAIR      82  71  71 S7        29.98R
SAN MARCOS     CLEAR     81  72  74 S7        29.97R
NEW BRAUNFELS  CLEAR     82  73  74 S10       29.94R
RANDOLPH AFB   CLEAR     80  73  78 SE8       29.95R
SAN ANTONIO    PTCLDY    82  72  71 SE14      29.95S
STINSON        CLEAR     82  73  74 SE12      29.92S
PLEASANTON     NOT AVBL
LA GRANGE      NOT AVBL
GIDDINGS       NOT AVBL
$$

EAST TEXAS

CITY           SKY/WX    TMP DP  RH WIND       PRES   REMARKS
PARIS          CLEAR     81  64  57 SE7       29.96S
CLARKSVILLE    NOT AVBL
TYLER          CLEAR     82  71  69 S8        29.96R
LONGVIEW       PTCLDY    82  73  74 S6        29.95S
PALESTINE      CLEAR     82  72  73 CALM      29.97S
NACOGDOCHES    CLEAR     79  73  83 SE5       29.97S
$$

TEXAS HILL COUNTRY AND EDWARDS PLATEAU

CITY           SKY/WX    TMP DP  RH WIND       PRES   REMARKS
LLANO          NOT AVBL
HORSESHOE BAY  FAIR      82  71  69 S9G22     29.96R
KERRVILLE      CLEAR     79  70  73 SE6       29.98R
FREDERICKSBRG  NOT AVBL
ROCKSPRINGS    CLEAR     81  68  65 SE13      30.01R
HONDO          PTCLDY    83  72  69 SE16G23   29.95R
UVALDE         CLEAR     84  71  64 SE14      29.93R
DEL RIO        CLEAR     88  66  48 E12G23    29.88R
$$

SOUTHEAST TEXAS

CITY           SKY/WX    TMP DP  RH WIND       PRES   REMARKS
COLLEGE STN    CLEAR     80  73  79 SE9       29.95S
CALDWELL       NOT AVBL
CROCKETT       CLEAR     81  73  78 SE3       29.99S
BRENHAM        NOT AVBL
HUNTSVILLE     CLEAR     81  74  79 S5        29.96S
CONROE         CLEAR     78  74  87 SE5       29.97S
HOUSTON BUSH   PTCLDY    78  75  90 S5        29.95F
HOUSTON HOBBY  PTCLDY    79  75  87 SE5       29.95S
PERLAND        CLEAR     81  76  84 SE3       29.97S
WHARTON        NOT AVBL
$$

THE UPPER TEXAS COAST

CITY           SKY/WX    TMP DP  RH WIND       PRES   REMARKS
ORANGE         CLEAR    N/A N/A N/A CALM      29.98S
PORT ARTHUR    CLEAR     77  76  96 CALM      29.96S
GALVESTON      PTCLDY    84  78  82 S9        29.97S
ANGLETON       CLEAR     80  77  90 S5        29.95S
BAY CITY       NOT AVBL
$$

TEXAS COASTAL BEND, RIO GRANDE PLAINS DEEP SOUTH TEXAS

CITY           SKY/WX    TMP DP  RH WIND       PRES   REMARKS
VICTORIA       CLEAR     79  78  97 SE8       29.94S
BEEVILLE       FAIR      79  78  97 E5        29.93S
ROCKPORT       PTCLDY    84  78  82 SE14      29.92R
PORT ARANSAS   MOCLDY    83  79  86 SE13G18   29.92S
PORT LAVACA    NOT AVBL
CORPUS CHRISTI PTCLDY    83  77  82 SE12      29.92R
KINGSVILLE NAS CLEAR     82  81  96 SE8       29.92R
COTULLA        CLEAR     85  74  69 SE17G24   29.91R
LAREDO         CLEAR     86  75  69 SE17      29.91R
BROWNSVILLE    CLEAR     82  79  90 SE6       29.92R
PORT ISABEL    CLEAR     84  81  90 SE10      29.92R
HEBBRONVILLE   NOT AVBL
MCALLEN        CLEAR     83  75  77 SE9       29.91R
WESLACO        NOT AVBL
FALFURRIAS     NOT AVBL
EDINBURG       CLEAR     83  74  76 SE7       29.91R
$$



USA.gov is the U.S. government's official web portal to all federal, state and local government web resources and services.